When you browse on this site, cookies collect data to enhance your experience and personalize the content and advertising you see.
Visit our Privacy Policy to learn more. By continuing to use the site, you agree to this use of cookies and data.
  • In Hungary
  • List of Countries
  • For 7 days
  • Water Temperature
  • Weather Map
  • News
  • Weather Widgets
  • user-avatar
    Login

    Hourly Weather Kujawki

    Today, 19 August, Monday

    Time Temperature Precipitation Wind Pressure Humidity
    00:00 +20°C° 0.1 mm 3 mps 748 mmHg 87%
    01:00 +19°C° 0 mm 3 mps 748 mmHg 95%
    02:00 +19°C° 0 mm 3 mps 749 mmHg 95%
    03:00 +19°C° 0 mm 3 mps 749 mmHg 96%
    04:00 +18°C° 0 mm 3 mps 749 mmHg 97%
    05:00 +19°C° 0 mm 2 mps 750 mmHg 93%
    06:00 +19°C° 0 mm 2 mps 750 mmHg 89%
    07:00 +20°C° 0 mm 2 mps 751 mmHg 85%
    08:00 +21°C° 0 mm 2 mps 751 mmHg 80%
    09:00 +21°C° 0 mm 2 mps 752 mmHg 75%
    10:00 +22°C° 0 mm 3 mps 752 mmHg 70%
    11:00 +21°C° 0.4 mm 3 mps 752 mmHg 74%
    12:00 +20°C° 0.4 mm 3 mps 753 mmHg 78%
    13:00 +20°C° 0.4 mm 3 mps 753 mmHg 83%
    14:00 +20°C° 0.1 mm 3 mps 753 mmHg 80%
    15:00 +20°C° 0.1 mm 2 mps 753 mmHg 77%
    16:00 +20°C° 0.1 mm 2 mps 753 mmHg 75%
    17:00 +20°C° 0 mm 2 mps 754 mmHg 78%
    18:00 +19°C° 0 mm 2 mps 754 mmHg 81%
    19:00 +18°C° 0 mm 2 mps 754 mmHg 84%
    20:00 +18°C° 0.1 mm 2 mps 754 mmHg 86%
    21:00 +17°C° 0.1 mm 2 mps 755 mmHg 88%
    22:00 +17°C° 0.1 mm 2 mps 755 mmHg 90%
    23:00 +16°C° 0 mm 2 mps 755 mmHg 88%

    Tomorrow, 20 August, Tuesday

    Time Temperature Precipitation Wind Pressure Humidity
    00:00 +16°C° 0 mm 2 mps 756 mmHg 86%
    01:00 +16°C° 0 mm 2 mps 756 mmHg 84%
    02:00 +16°C° 0 mm 1 mps 756 mmHg 82%
    03:00 +15°C° 0 mm 1 mps 756 mmHg 80%
    04:00 +15°C° 0 mm 1 mps 757 mmHg 77%
    05:00 +16°C° 0 mm 1 mps 757 mmHg 73%
    06:00 +18°C° 0 mm 1 mps 757 mmHg 69%
    07:00 +19°C° 0 mm 1 mps 757 mmHg 65%
    08:00 +21°C° 0 mm 1 mps 758 mmHg 59%
    09:00 +22°C° 0 mm 1 mps 758 mmHg 52%
    10:00 +24°C° 0 mm 1 mps 758 mmHg 46%
    11:00 +25°C° 0 mm 1 mps 758 mmHg 43%
    12:00 +25°C° 0 mm 1 mps 758 mmHg 40%
    13:00 +26°C° 0 mm 1 mps 758 mmHg 37%
    14:00 +26°C° 0 mm 1 mps 757 mmHg 37%
    15:00 +26°C° 0 mm 1 mps 757 mmHg 36%
    16:00 +27°C° 0 mm 1 mps 757 mmHg 36%
    17:00 +25°C° 0 mm 1 mps 757 mmHg 39%
    18:00 +24°C° 0 mm 2 mps 757 mmHg 43%
    19:00 +23°C° 0 mm 2 mps 757 mmHg 46%
    20:00 +21°C° 0.3 mm 2 mps 757 mmHg 55%
    21:00 +20°C° 0.3 mm 3 mps 757 mmHg 64%
    22:00 +18°C° 0.3 mm 3 mps 758 mmHg 73%
    23:00 +18°C° 0.7 mm 4 mps 758 mmHg 76%

    Day after tomorrow, 21 August, Wednesday

    Time Temperature Precipitation Wind Pressure Humidity
    00:00 +16°C° 0.7 mm 5 mps 758 mmHg 79%
    01:00 +15°C° 0.7 mm 6 mps 758 mmHg 82%
    02:00 +15°C° 1.4 mm 6 mps 758 mmHg 85%
    03:00 +14°C° 1.4 mm 5 mps 758 mmHg 88%
    04:00 +14°C° 1.4 mm 5 mps 758 mmHg 90%
    05:00 +14°C° 0.2 mm 5 mps 758 mmHg 90%
    06:00 +14°C° 0.2 mm 4 mps 759 mmHg 89%
    07:00 +14°C° 0.2 mm 3 mps 759 mmHg 89%
    08:00 +16°C° 0 mm 3 mps 759 mmHg 84%
    09:00 +17°C° 0 mm 3 mps 760 mmHg 79%
    10:00 +18°C° 0 mm 3 mps 760 mmHg 74%
    11:00 +20°C° 0.1 mm 3 mps 760 mmHg 68%
    12:00 +21°C° 0.1 mm 3 mps 760 mmHg 62%
    13:00 +23°C° 0.1 mm 2 mps 760 mmHg 56%
    14:00 +23°C° 0.1 mm 2 mps 760 mmHg 54%
    15:00 +24°C° 0.1 mm 2 mps 760 mmHg 52%
    16:00 +24°C° 0.1 mm 2 mps 760 mmHg 49%
    17:00 +23°C° 0 mm 2 mps 760 mmHg 56%
    18:00 +20°C° 0 mm 2 mps 760 mmHg 63%
    19:00 +19°C° 0 mm 2 mps 760 mmHg 70%
    20:00 +18°C° 0 mm 2 mps 760 mmHg 73%
    21:00 +17°C° 0 mm 2 mps 761 mmHg 76%
    22:00 +16°C° 0 mm 2 mps 761 mmHg 79%
    23:00 +15°C° 0 mm 2 mps 761 mmHg 82%

    22 August, Thursday

    Time Temperature Precipitation Wind Pressure Humidity
    00:00 +15°C° 0 mm 2 mps 761 mmHg 85%
    01:00 +15°C° 0 mm 2 mps 761 mmHg 87%
    02:00 +15°C° 0 mm 1 mps 761 mmHg 89%
    03:00 +14°C° 0 mm 1 mps 761 mmHg 90%
    04:00 +14°C° 0 mm 1 mps 761 mmHg 92%
    05:00 +15°C° 0 mm 1 mps 761 mmHg 89%
    06:00 +16°C° 0 mm 1 mps 761 mmHg 85%
    07:00 +18°C° 0 mm 1 mps 761 mmHg 82%
    08:00 +19°C° 0 mm 1 mps 761 mmHg 75%
    09:00 +19°C° 0 mm 2 mps 761 mmHg 68%
    10:00 +21°C° 0 mm 2 mps 761 mmHg 61%
    11:00 +23°C° 0 mm 1 mps 761 mmHg 56%
    12:00 +24°C° 0 mm 1 mps 761 mmHg 52%
    13:00 +24°C° 0 mm 1 mps 761 mmHg 48%
    14:00 +24°C° 0 mm 1 mps 760 mmHg 47%
    15:00 +24°C° 0 mm 1 mps 760 mmHg 47%
    16:00 +24°C° 0 mm 1 mps 760 mmHg 46%
    17:00 +23°C° 0 mm 1 mps 760 mmHg 50%
    18:00 +22°C° 0 mm 1 mps 760 mmHg 54%
    19:00 +21°C° 0 mm 1 mps 760 mmHg 58%
    20:00 +20°C° 0 mm 1 mps 760 mmHg 60%
    21:00 +19°C° 0 mm 2 mps 760 mmHg 62%
    22:00 +18°C° 0 mm 2 mps 761 mmHg 64%
    23:00 +18°C° 0 mm 2 mps 761 mmHg 65%

    23 August, Friday

    Time Temperature Precipitation Wind Pressure Humidity
    00:00 +18°C° 0 mm 1 mps 761 mmHg 65%
    01:00 +18°C° 0 mm 1 mps 761 mmHg 65%
    02:00 +16°C° 0 mm 1 mps 761 mmHg 66%
    03:00 +16°C° 0 mm 1 mps 761 mmHg 67%
    04:00 +15°C° 0 mm 1 mps 760 mmHg 68%
    05:00 +16°C° 0 mm 1 mps 761 mmHg 66%
    06:00 +18°C° 0 mm 1 mps 761 mmHg 63%
    07:00 +19°C° 0 mm 1 mps 761 mmHg 60%
    08:00 +21°C° 0 mm 1 mps 761 mmHg 56%
    09:00 +22°C° 0 mm 1 mps 761 mmHg 51%
    10:00 +24°C° 0 mm 2 mps 761 mmHg 47%
    11:00 +25°C° 0 mm 2 mps 761 mmHg 44%
    12:00 +25°C° 0 mm 2 mps 761 mmHg 42%
    13:00 +26°C° 0 mm 2 mps 761 mmHg 39%
    14:00 +26°C° 0 mm 2 mps 761 mmHg 39%
    15:00 +26°C° 0 mm 2 mps 760 mmHg 39%
    16:00 +26°C° 0 mm 2 mps 760 mmHg 39%
    17:00 +24°C° 0 mm 2 mps 760 mmHg 44%
    18:00 +23°C° 0 mm 2 mps 760 mmHg 48%
    19:00 +20°C° 0 mm 2 mps 760 mmHg 53%
    20:00 +19°C° 0 mm 2 mps 760 mmHg 55%
    21:00 +19°C° 0 mm 2 mps 760 mmHg 57%
    22:00 +18°C° 0 mm 2 mps 760 mmHg 59%
    23:00 +18°C° 0 mm 2 mps 760 mmHg 62%

    24 August, Saturday

    Time Temperature Precipitation Wind Pressure Humidity
    00:00 +17°C° 0 mm 2 mps 760 mmHg 65%
    01:00 +17°C° 0 mm 2 mps 760 mmHg 68%
    02:00 +16°C° 0 mm 3 mps 760 mmHg 69%
    03:00 +16°C° 0 mm 3 mps 760 mmHg 71%
    04:00 +14°C° 0 mm 3 mps 759 mmHg 72%
    05:00 +16°C° 0 mm 3 mps 759 mmHg 69%
    06:00 +17°C° 0 mm 3 mps 759 mmHg 66%
    07:00 +18°C° 0 mm 4 mps 759 mmHg 63%
    08:00 +20°C° 0 mm 4 mps 759 mmHg 60%
    09:00 +22°C° 0 mm 4 mps 759 mmHg 57%
    10:00 +23°C° 0 mm 5 mps 759 mmHg 54%
    11:00 +25°C° 0 mm 5 mps 758 mmHg 53%
    12:00 +26°C° 0 mm 5 mps 758 mmHg 52%
    13:00 +26°C° 0 mm 5 mps 757 mmHg 50%
    14:00 +26°C° 0 mm 5 mps 757 mmHg 52%
    15:00 +26°C° 0 mm 5 mps 756 mmHg 54%
    16:00 +26°C° 0 mm 5 mps 756 mmHg 56%
    17:00 +23°C° 0 mm 5 mps 756 mmHg 61%
    18:00 +22°C° 0 mm 4 mps 755 mmHg 66%
    19:00 +21°C° 0 mm 4 mps 755 mmHg 71%
    20:00 +21°C° 0 mm 4 mps 755 mmHg 74%
    21:00 +20°C° 0 mm 4 mps 755 mmHg 77%
    22:00 +20°C° 0 mm 4 mps 754 mmHg 79%
    23:00 +20°C° 0 mm 4 mps 754 mmHg 81%
    Show more